Location: Zlin
(49.2330°N, 17.6670°E)
Time: 08:25:05
(UTC+01:00)

ISS - Visible Passes

Search period start: 19 February 2019 00:00
Search period end: 01 March 2019 00:00
Orbit: 403 x 411 km, 51.6° (Epoch: 19 February)

Date Brightness Start Highest point End Pass type
(mag) Time Alt. Az. Time Alt. Az. Time Alt. Az.
24 Feb -1.3 05:43:32 10° S 05:46:00 20° SE 05:48:28 10° E visible
25 Feb -0.9 04:53:16 10° SSE 04:54:42 12° SE 04:56:09 10° ESE visible
26 Feb -2.5 05:36:10 10° SW 05:39:13 38° SSE 05:42:18 10° E visible
27 Feb -1.9 04:46:29 19° S 04:47:48 24° SE 04:50:32 10° E visible
28 Feb -1.0 03:57:12 14° ESE 03:57:12 14° ESE 03:58:28 10° E visible
28 Feb -3.6 05:29:55 15° WSW 05:32:32 69° SSE 05:35:47 10° ENE visible
